Location: Владивосток
(43.1151°N, 131.8856°E)
Time: 19:03:39
(UTC+10:00)

SPROUT - Pass Details

Date: 07 July 2022
Orbit: 588 x 598 km, 97.9° (Epoch: 09 August)

Event Time Altitude Azimuth Distance (km) Brightness Sun altitude
Exits shadow 03:15:03 15° 276° (W) 1,638 ? -18.9°
Drops below altitude 10° 03:17:00 10° 304° (WNW) 1,923 ? -18.7°
Sets 03:20:03 0° 328° (NNW) 2,832 ? -18.4°
